TimeEST,TemperatureF,Dew PointF,Humidity,Sea Level PressureIn,VisibilityMPH,Wind Direction,Wind SpeedMPH,Gust SpeedMPH,PrecipitationIn,Events,Conditions,WindDirDegrees,DateUTC
12:53 AM,57.9,46.0,65,29.98,10.0,WNW,6.9,-,N/A,,Mostly Cloudy,290,2013-03-02 05:53:00
1:53 AM,57.0,46.0,67,29.98,10.0,NW,10.4,-,N/A,,Overcast,310,2013-03-02 06:53:00
2:53 AM,57.0,42.1,57,29.97,10.0,NW,10.4,-,N/A,,Overcast,310,2013-03-02 07:53:00
3:53 AM,55.9,42.1,60,29.98,10.0,WNW,11.5,-,N/A,,Overcast,300,2013-03-02 08:53:00
4:53 AM,55.9,41.0,57,29.98,10.0,NW,12.7,-,N/A,,Overcast,310,2013-03-02 09:53:00
6:53 AM,55.0,42.1,62,30.03,10.0,NW,15.0,26.5,N/A,,Overcast,320,2013-03-02 11:53:00
7:53 AM,55.0,41.0,59,30.04,-9999.0,NNW,17.3,21.9,N/A,,Overcast,330,2013-03-02 12:53:00
8:53 AM,55.0,39.0,55,30.04,10.0,NNW,10.4,-,N/A,,Mostly Cloudy,340,2013-03-02 13:53:00
9:53 AM,55.9,33.1,42,30.04,10.0,NW,4.6,-,N/A,,Scattered Clouds,320,2013-03-02 14:53:00
10:53 AM,57.9,33.1,39,30.03,10.0,NNW,8.1,-,N/A,,Mostly Cloudy,330,2013-03-02 15:53:00
11:53 AM,61.0,35.1,38,30.01,10.0,NNW,13.8,-,N/A,,Mostly Cloudy,330,2013-03-02 16:53:00
12:53 PM,66.0,37.9,36,30.00,10.0,WNW,18.4,25.3,N/A,,Scattered Clouds,290,2013-03-02 17:53:00
1:53 PM,66.0,39.9,38,29.98,10.0,WNW,19.6,27.6,N/A,,Scattered Clouds,300,2013-03-02 18:53:00
2:53 PM,64.9,39.9,40,29.97,10.0,WNW,21.9,28.8,N/A,,Clear,300,2013-03-02 19:53:00
3:53 PM,64.0,37.9,38,29.97,10.0,WNW,21.9,27.6,N/A,,Clear,300,2013-03-02 20:53:00
4:53 PM,62.1,39.0,43,29.98,10.0,NW,16.1,-,N/A,,Mostly Cloudy,310,2013-03-02 21:53:00
5:53 PM,60.1,39.0,46,30.00,10.0,NW,8.1,-,N/A,,Clear,310,2013-03-02 22:53:00
6:53 PM,57.9,39.9,51,30.02,10.0,NW,16.1,20.7,N/A,,Clear,310,2013-03-02 23:53:00
7:53 PM,57.0,39.0,51,30.04,10.0,WNW,9.2,-,N/A,,Clear,300,2013-03-03 00:53:00
8:53 PM,55.0,39.9,57,30.05,10.0,WNW,5.8,-,N/A,,Clear,290,2013-03-03 01:53:00
9:53 PM,55.0,39.9,57,30.05,10.0,West,5.8,-,N/A,,Clear,280,2013-03-03 02:53:00
10:53 PM,53.1,39.9,61,30.05,10.0,West,4.6,-,N/A,,Clear,270,2013-03-03 03:53:00
11:53 PM,51.1,39.9,66,30.03,10.0,WNW,5.8,-,N/A,,Clear,300,2013-03-03 04:53:00